This is the latest recevied weather packets stored in our database for station/object OE6JUE. If no packets are shown the sender has not sent any weather packets the latest 10 day(s).
| Time | Temp. | Humidity | Pressure | Rain* | Wind** | Luminosity | Snow |
|---|---|---|---|---|---|---|---|
| 1787915912 | 28.89° C | 45% | 1016.5 hPa | 0 mm | - | - | - |
| 1787915611 | 28.89° C | 47% | 1016.5 hPa | 0 mm | - | - | - |
| 1787915312 | 28.89° C | 45% | 1016.6 hPa | 0 mm | - | - | - |
| 1787915011 | 28.89° C | 48% | 1016.6 hPa | 0 mm | - | - | - |
| 1787914712 | 28.33° C | 48% | 1016.8 hPa | 0 mm | - | - | - |
| 1787914411 | 27.78° C | 48% | 1016.8 hPa | 0 mm | - | - | - |
| 1787914111 | 27.22° C | 52% | 1016.9 hPa | 0 mm | - | - | - |
| 1787913812 | 27.22° C | 52% | 1017.2 hPa | 0 mm | - | - | - |
| 1787913511 | 27.22° C | 51% | 1017 hPa | 0 mm | - | - | - |
| 1787913211 | 27.22° C | 51% | 1017 hPa | 0 mm | - | - | - |
| 1787912912 | 27.78° C | 48% | 1017.3 hPa | 0 mm | - | - | - |
| 1787912611 | 27.22° C | 52% | 1017.3 hPa | 0 mm | - | - | - |
| 1787912312 | 27.22° C | 51% | 1017.3 hPa | 0 mm | - | - | - |
| 1787912012 | 26.67° C | 51% | 1017.5 hPa | 0 mm | - | - | - |
| 1787911712 | 26.67° C | 51% | 1017.5 hPa | 0 mm | - | - | - |
| 1787911412 | 27.22° C | 51% | 1017.5 hPa | 0 mm | - | - | - |
| 1787911111 | 27.22° C | 50% | 1017.7 hPa | 0 mm | - | - | - |
| 1787910811 | 27.78° C | 44% | 1017.7 hPa | 0 mm | - | - | - |
| 1787910511 | 27.78° C | 44% | 1017.9 hPa | 0 mm | - | - | - |
| 1787910212 | 28.33° C | 45% | 1017.9 hPa | 0 mm | - | - | - |
| 1787909911 | 27.78° C | 44% | 1018 hPa | 0 mm | - | - | - |
| 1787909612 | 27.78° C | 43% | 1018.1 hPa | 0 mm | - | - | - |
| 1787909311 | 27.78° C | 47% | 1018.2 hPa | 0 mm | - | - | - |
| 1787909011 | 27.22° C | 51% | 1018.3 hPa | 0 mm | - | - | - |
| 1787908711 | 26.67° C | 50% | 1018.1 hPa | 0 mm | - | - | - |
* Rain latest hour (hover to see other rain measurements)
** Current wind speed in m/s (hover to see current wind gust speed)